Погода в Шигалях

Россия / Чувашская Республика     55°33′20″N   48°02′11″E
темп.,
°C
ветер,
м/с
пор.,
м/с
влажн.,
%
обл.,
%
осадки,
мм/ч
давл.,
гПа
погр.,
м
17 мая, пн
пн1700:00+17сз227911 0.0 101511
03:00+16с008013 0.0 101611
06:00+19ссз117291 0.0 101678
09:00+24вюв115933 0.0 1016443
12:00+28ююв23445 0.0 10161027
15:00+30зюз233717 0.0 10161685
18:00+27ссз12555 0.0 101529
21:00+20зюз227931 0.4 101738
18 мая, вт
вт1800:00+18ссв228685 0.7 101717
03:00+16всв398742 0.8 1018164
06:00+18в38777 0.0 1018241
09:00+23в57645 0.0 1018553
12:00+27вюв45535 0.0 10181025
15:00+27в45495 0.0 10171348
18:00+25в48645 0.0 1017255
21:00+19в411758 0.0 1018214
19 мая, ср
ср1900:00+17в4117215 0.0 1018233
03:00+15в3117529 0.0 1018212
06:00+17в512745 0.0 1018349
09:00+21вюв710605 0.0 1018659
12:00+23вюв79482 0.0 10181083
15:00+24вюв78480 0.0 10181387
18:00+22в511600 0.0 1017402
21:00+17в413730 0.0 1017257
20 мая, чт
чт2000:00+16вюв413770 0.0 1017271
03:00+14вюв412770 0.0 1017261
06:00+16вюв513725 0.0 1017414
09:00+20юв79580 0.0 1017696
12:00+23юв810490 0.0 10161836
15:00+23вюв811490 0.0 10142007
18:00+20вюв713560 0.0 1013539
21:00+18вюв716550 0.0 1013433
21 мая, пт
пт2100:00+14вюв4106937 0.0 1012190
03:00+12ююв337686 0.0 101252
06:00+14ю2385100 0.5 1013185
09:00+15юз3584100 2.4 1013305
12:00+21юз585752 1.1 10131795
15:00+21зюз8856100 1.2 10131891
18:00+17з6107498 0.3 1014560
21:00+14ю3984100 0.4 1015174